Regional Weather Roundup
Issued by NWS Goodland, KS

Home | Current Version | Previous Version | Graphics & Text | Print | Product List | Glossary Off
Versions: 1 2 3 4 5 6 7 8 9 10 11 12 13 14 15 16 17 18 19 20 21 22 23 24 25 26 27 28 29 30 31 32 33 34 35 36 37 38 39 40 41 42 43 44 45 46 47 48 49 50

000
ASUS43 KGLD 300259
RWRGLD

GOODLAND FORECAST AREA HOURLY WEATHER ROUNDUP
NATIONAL WEATHER SERVICE GOODLAND KS
900 PM MDT MON SEP 29 2014

...OFFICIAL OBSERVATIONS...

CITY           SKY/WX    TMP DP  RH WIND       PRES   REMARKS
GOODLAND KS    LGT RAIN  57  55  93 SW14G23   29.91R
HILL CITY KS   CLOUDY    73  53  49 SE16G23   29.85F
IMPERIAL NEB   TSTM      69  54  58 SW29G39   29.81R
MCCOOK NEB     CLOUDY    72  53  51 SE18G28   29.81S
AKRON CO       LGT RAIN  54  53  97 N12       29.76F
BURLINGTON CO  CLOUDY    56  54  93 SE5       29.85F
LIMON CO       CLOUDY    51  49  92 SW6       29.88R
$$

...UNOFFICIAL OBSERVATIONS...

CITY           SKY/WX    TMP DP  RH WIND       PRES   REMARKS
COLBY KS       CLOUDY    73  55  53 S24G31    29.88R
GOVE KS          N/A     73  32  22 MISG        N/A
NORTON KS      PTCLDY    73  52  46 SE17G24   29.84F
SHARON SPRINGS   N/A     57  54  90 SW6         N/A
WAKEENEY KS      N/A     71  49  44 MISG        N/A
TRENTON NEB      N/A     72  32  23 SE18        N/A
KIT CARSON CO    N/A     55  52  91 MISG        N/A
YUMA CO          N/A     57  57 100 W5G12       N/A
$$



USA.gov is the U.S. government's official web portal to all federal, state and local government web resources and services.